NR0A-4 Weather Reports


time (UTC)temp
F
wind
direction
speed
knots
gust
knots
rain 1hr
in
rain 24hr
in
rain mn
in
humidity
%
barometer
mb
20171120114708 32 201 2.6 5.2 0.00 0.00 0.00 71 1005.0
20171120114208 33 216 1.7 4.3 0.00 0.00 0.00 70 1005.0
20171120113708 33 199 2.6 5.2 0.00 0.00 0.00 70 1005.0
20171120113212 33 186 4.3 6.1 0.00 0.00 0.00 70 1005.1
20171120112712 33 210 1.7 2.6 0.00 0.00 0.00 70 1005.2
20171120112213 33 177 1.7 4.3 0.00 0.00 0.00 70 1005.2
20171120111712 33 212 1.7 2.6 0.00 0.00 0.00 71 1005.3
20171120111212 32 208 1.7 1.7 0.00 0.00 0.00 71 1005.4
20171120110712 32 190 0.9 1.7 0.00 0.00 0.00 71 1005.4
20171120110212 32 205 1.7 4.3 0.00 0.00 0.00 71 1005.5
20171120105711 32 228 1.7 1.7 0.00 0.00 0.00 71 1005.7
20171120105211 32 193 1.7 2.6 0.00 0.00 0.00 72 1005.8
20171120104711 31 196 1.7 2.6 0.00 0.00 0.00 72 1005.7
20171120104210 31 217 1.7 1.7 0.00 0.00 0.00 72 1005.9
20171120103710 31 225 2.6 2.6 0.00 0.00 0.00 72 1006.2
20171120103210 32 232 1.7 1.7 0.00 0.00 0.00 72 1006.3
20171120102708 31 223 1.7 2.6 0.00 0.00 0.00 72 1006.2
20171120102425 31 233 1.7 2.6 0.00 0.00 0.00 72 1006.2
20171120102208 31 228 1.7 2.6 0.00 0.00 0.00 72 1006.3
20171120101713 32 226 2.6 2.6 0.00 0.00 0.00 72 1006.3
20171120101213 32 229 2.6 2.6 0.00 0.00 0.00 71 1006.5
20171120100713 32 226 2.6 2.6 0.00 0.00 0.00 71 1006.6
20171120100212 32 226 1.7 2.6 0.00 0.00 0.00 70 1006.9
20171120095712 32 222 1.7 1.7 0.00 0.00 0.00 70 1006.8
20171120095212 32 224 1.7 1.7 0.00 0.00 0.00 70 1006.9
20171120094711 32 222 2.6 2.6 0.00 0.00 0.00 70 1006.9
20171120094212 32 229 2.6 2.6 0.00 0.00 0.00 70 1006.9
20171120093711 32 222 4.3 5.2 0.00 0.00 0.00 70 1007.0
20171120093211 32 229 1.7 1.7 0.00 0.00 0.00 70 1007.1
20171120092711 32 229 1.7 2.6 0.00 0.00 0.00 69 1007.0
20171120092211 33 227 1.7 2.6 0.00 0.00 0.00 68 1007.0
20171120091712 33 238 1.7 1.7 0.00 0.00 0.00 68 1007.0
20171120091211 33 238 0.9 1.7 0.00 0.00 0.00 67 1007.0
20171120090711 34 231 1.7 4.3 0.00 0.00 0.00 66 1007.1
20171120090212 34 207 1.7 1.7 0.00 0.00 0.00 66 1007.1
20171120085711 34 230 1.7 1.7 0.00 0.00 0.00 65 1007.1
20171120085208 34 234 0.9 1.7 0.00 0.00 0.00 65 1007.2
20171120084708 34 227 0.9 0.9 0.00 0.00 0.00 64 1007.2
20171120084212 35 220 0.9 0.9 0.00 0.00 0.00 65 1007.3
20171120083712 35 224 1.7 2.6 0.00 0.00 0.00 64 1007.3
20171120083212 35 223 1.7 4.3 0.00 0.00 0.00 64 1007.4
20171120082712 35 222 4.3 6.1 0.00 0.00 0.00 64 1007.4
20171120082212 35 223 2.6 4.3 0.00 0.00 0.00 64 1007.5
20171120081712 35 224 1.7 2.6 0.00 0.00 0.00 63 1007.5
20171120081212 35 224 2.6 2.6 0.00 0.00 0.00 63 1007.5
20171120080712 35 229 2.6 4.3 0.00 0.00 0.00 63 1007.6
20171120080212 35 216 1.7 4.3 0.00 0.00 0.00 62 1007.6
20171120075712 35 217 1.7 4.3 0.00 0.00 0.00 62 1007.7
20171120075212 36 228 1.7 2.6 0.00 0.00 0.00 61 1007.7
20171120074712 36 219 2.6 5.2 0.00 0.00 0.00 61 1007.7
20171120074212 36 223 2.6 4.3 0.00 0.00 0.00 61 1007.9
20171120073712 36 226 2.6 5.2 0.00 0.00 0.00 61 1007.7
20171120073211 36 228 1.7 4.3 0.00 0.00 0.00 60 1008.0
20171120072711 36 229 1.7 2.6 0.00 0.00 0.00 60 1008.1
20171120072211 36 214 1.7 1.7 0.00 0.00 0.00 60 1008.2
20171120071711 36 216 1.7 5.2 0.00 0.00 0.00 59 1008.2
20171120071211 37 223 0.9 1.7 0.00 0.00 0.00 59 1008.3
20171120070711 36 206 2.6 4.3 0.00 0.00 0.00 59 1008.4
20171120070211 36 202 1.7 2.6 0.00 0.00 0.00 59 1008.4
20171120065711 37 213 0.9 1.7 0.00 0.00 0.00 59 1008.5
20171120065211 37 220 1.7 1.7 0.00 0.00 0.00 58 1008.7
20171120064710 37 234 1.7 2.6 0.00 0.00 0.00 57 1008.8
20171120064209 38 214 2.6 4.3 0.00 0.00 0.00 57 1008.8
20171120063710 38 229 1.7 2.6 0.00 0.00 0.00 56 1008.8
20171120063210 38 213 1.7 1.7 0.00 0.00 0.00 55 1008.9
20171120062710 39 218 2.6 2.6 0.00 0.00 0.00 55 1009.0
20171120062427 39 221 2.6 5.2 0.00 0.00 0.00 55 1009.1
20171120062210 38 231 1.7 4.3 0.00 0.00 0.00 55 1009.1
20171120061710 39 215 1.7 4.3 0.00 0.00 0.00 55 1009.1
20171120061210 39 224 0.9 0.9 0.00 0.00 0.00 54 1009.4
20171120060710 39 209 1.7 2.6 0.00 0.00 0.00 54 1009.4
20171120060209 39 235 1.7 2.6 0.00 0.00 0.00 54 1009.5
20171120055709 39 229 1.7 4.3 0.00 0.00 0.00 55 1009.7
20171120055213 39 232 4.3 5.2 0.00 0.00 0.00 55 1009.7
20171120054930 39 238 2.6 6.1 0.00 0.00 0.00 55 1009.7
20171120054713 39 246 2.6 4.3 0.00 0.00 0.00 55 1009.7
20171120054213 39 244 2.6 4.3 0.00 0.00 0.00 54 1009.5
20171120053713 39 225 2.6 4.3 0.00 0.00 0.00 53 1009.7
20171120053213 39 224 4.3 7.0 0.00 0.00 0.00 54 1009.7
20171120052713 39 222 1.7 2.6 0.00 0.00 0.00 54 1010.0
20171120052212 39 223 1.7 2.6 0.00 0.00 0.00 54 1010.0
20171120051712 39 220 1.7 4.3 0.00 0.00 0.00 54 1010.2
20171120051212 40 224 1.7 4.3 0.00 0.00 0.00 53 1010.2
20171120050712 40 224 1.7 2.6 0.00 0.00 0.00 53 1010.3
20171120050211 40 234 1.7 4.3 0.00 0.00 0.00 53 1010.3
20171120045711 40 238 1.7 2.6 0.00 0.00 0.00 53 1010.5
20171120045210 40 230 0.9 1.7 0.00 0.00 0.00 53 1010.6
20171120044710 40 241 1.7 2.6 0.00 0.00 0.00 53 1010.7
20171120044210 40 232 1.7 2.6 0.00 0.00 0.00 53 1010.7
20171120043710 40 233 2.6 6.1 0.00 0.00 0.00 53 1010.8
20171120043210 40 216 2.6 5.2 0.00 0.00 0.00 53 1010.9
20171120042710 40 234 1.7 4.3 0.00 0.00 0.00 54 1010.9
20171120042210 40 227 1.7 4.3 0.00 0.00 0.00 54 1010.9
20171120041710 40 240 0.9 2.6 0.00 0.00 0.00 54 1010.9
20171120041427 40 217 0.9 1.7 0.00 0.00 0.00 54 1010.9
20171120041210 40 224 1.7 2.6 0.00 0.00 0.00 54 1010.9
20171120040927 40 219 1.7 5.2 0.00 0.00 0.00 54 1010.9
20171120040710 40 237 1.7 2.6 0.00 0.00 0.00 54 1011.0
20171120040210 40 231 0.9 1.7 0.00 0.00 0.00 54 1011.1
20171120035710 40 203 0.0 0.0 0.00 0.00 0.00 54 1011.2
20171120035210 40 213 0.9 0.9 0.00 0.00 0.00 54 1011.1
20171120034710 40 210 0.0 0.0 0.00 0.00 0.00 54 1011.1
20171120034210 41 229 0.0 0.9 0.00 0.00 0.00 53 1011.0
20171120033710 41 215 0.9 1.7 0.00 0.00 0.00 53 1011.1
20171120033210 41 210 2.6 4.3 0.00 0.00 0.00 53 1011.2
20171120032710 41 238 1.7 2.6 0.00 0.00 0.00 53 1011.3
20171120032210 41 206 1.7 2.6 0.00 0.00 0.00 54 1011.3
20171120031710 40 230 2.6 4.3 0.00 0.00 0.00 54 1011.3
20171120031210 40 236 1.7 4.3 0.00 0.00 0.00 54 1011.5
20171120030710 40 246 0.9 1.7 0.00 0.00 0.00 54 1011.6
20171120030210 40 230 0.0 1.7 0.00 0.00 0.00 53 1011.6
20171120025710 40 241 0.9 2.6 0.00 0.00 0.00 53 1011.6
20171120025210 41 237 0.0 1.7 0.00 0.00 0.00 52 1011.7
20171120024709 41 231 1.7 2.6 0.00 0.00 0.00 53 1011.8
20171120024209 40 252 0.0 1.7 0.00 0.00 0.00 53 1011.9
20171120023709 40 230 1.7 4.3 0.00 0.00 0.00 53 1011.8
20171120023209 40 224 0.0 1.7 0.00 0.00 0.00 53 1011.8
20171120022709 40 239 0.9 1.7 0.00 0.00 0.00 53 1011.8
20171120022209 40 236 1.7 2.6 0.00 0.00 0.00 52 1011.9
20171120021709 40 236 1.7 2.6 0.00 0.00 0.00 52 1012.0
20171120021209 41 230 1.7 4.3 0.00 0.00 0.00 52 1012.0
20171120020709 40 230 2.6 2.6 0.00 0.00 0.00 52 1012.0
20171120020209 40 237 1.7 5.2 0.00 0.00 0.00 52 1012.1
20171120015713 41 246 1.7 2.6 0.00 0.00 0.00 51 1012.1
20171120015213 41 249 1.7 2.6 0.00 0.00 0.00 50 1012.1
20171120014711 41 242 1.7 2.6 0.00 0.00 0.00 50 1012.1
20171120014211 42 239 1.7 4.3 0.00 0.00 0.00 49 1012.1
20171120013709 42 248 1.7 4.3 0.00 0.00 0.00 49 1012.3
20171120013209 43 239 2.6 4.3 0.00 0.00 0.00 48 1012.2
20171120012709 43 246 1.7 1.7 0.00 0.00 0.00 48 1012.3
20171120012209 43 189 0.0 1.7 0.00 0.00 0.00 48 1012.3
20171120011709 43 227 2.6 5.2 0.00 0.00 0.00 48 1012.4
20171120011209 44 242 0.9 1.7 0.00 0.00 0.00 47 1012.4
20171120010709 44 226 0.0 2.6 0.00 0.00 0.00 47 1012.5
20171120010208 44 227 1.7 1.7 0.00 0.00 0.00 47 1012.4
20171120005708 44 241 1.7 1.7 0.00 0.00 0.00 47 1012.6
20171120005208 44 238 2.6 4.3 0.00 0.00 0.00 47 1012.5
20171120004708 44 214 1.7 1.7 0.00 0.00 0.00 47 1012.5
20171120004212 44 217 0.9 1.7 0.00 0.00 0.00 47 1012.5
20171120003712 44 219 0.9 2.6 0.00 0.00 0.00 46 1012.6
20171120003212 45 223 1.7 4.3 0.00 0.00 0.00 45 1012.5
20171120002712 45 211 4.3 7.0 0.00 0.00 0.00 45 1012.4
20171120002212 45 212 2.6 5.2 0.00 0.00 0.00 45 1012.5
20171120001712 45 212 1.7 2.6 0.00 0.00 0.00 44 1012.5
20171120001212 45 206 2.6 4.3 0.00 0.00 0.00 43 1012.5
20171120000712 45 211 2.6 2.6 0.00 0.00 0.00 42 1012.6
20171120000212 45 207 2.6 4.3 0.00 0.00 0.00 42 1012.7
20171119235710 45 207 2.6 5.2 0.00 0.00 0.00 42 1012.7
20171119235210 45 224 1.7 2.6 0.00 0.00 0.00 42 1012.9
20171119234710 46 226 1.7 4.3 0.00 0.00 0.00 42 1012.9
20171119234210 46 221 1.7 1.7 0.00 0.00 0.00 41 1012.9
20171119233710 46 210 0.9 2.6 0.00 0.00 0.00 41 1012.9
20171119233210 47 218 2.6 5.2 0.00 0.00 0.00 40 1012.9
20171119232709 47 218 1.7 2.6 0.00 0.00 0.00 40 1012.9
20171119232209 47 221 1.7 2.6 0.00 0.00 0.00 39 1012.9
20171119231709 47 218 1.7 2.6 0.00 0.00 0.00 39 1012.8
20171119231209 48 223 1.7 4.3 0.00 0.00 0.00 38 1012.9
20171119230709 48 218 2.6 5.2 0.00 0.00 0.00 37 1012.9
20171119230209 49 224 1.7 2.6 0.00 0.00 0.00 37 1013.1
20171119225709 50 227 1.7 2.6 0.00 0.00 0.00 36 1013.3
20171119225209 51 226 1.7 4.3 0.00 0.00 0.00 35 1013.3
20171119224713 51 230 2.6 4.3 0.00 0.00 0.00 34 1013.3
20171119224213 52 226 2.6 4.3 0.00 0.00 0.00 33 1013.3
20171119223713 53 234 2.6 7.0 0.00 0.00 0.00 32 1013.4
20171119223213 53 233 2.6 6.1 0.00 0.00 0.00 32 1013.6
20171119222713 53 231 2.6 7.8 0.00 0.00 0.00 31 1013.6
20171119222213 54 261 0.9 0.9 0.00 0.00 0.00 31 1013.6
20171119221713 54 240 5.2 11.3 0.00 0.00 0.00 30 1013.5
20171119221213 54 251 2.6 8.7 0.00 0.00 0.00 30 1013.5
20171119220713 54 226 5.2 10.4 0.00 0.00 0.00 30 1013.5
20171119220213 54 223 6.1 13.0 0.00 0.00 0.00 29 1013.5
20171119215713 55 229 6.1 8.7 0.00 0.00 0.00 29 1013.6
20171119215212 55 223 6.1 11.3 0.00 0.00 0.00 29 1013.6
20171119214712 55 235 2.6 7.0 0.00 0.00 0.00 30 1013.6
20171119214212 55 227 5.2 8.7 0.00 0.00 0.00 29 1013.6
20171119213712 55 241 5.2 7.8 0.00 0.00 0.00 30 1013.6
20171119213212 54 245 5.2 7.8 0.00 0.00 0.00 30 1013.7
20171119212712 54 227 5.2 8.7 0.00 0.00 0.00 31 1013.8
20171119212212 54 242 4.3 6.1 0.00 0.00 0.00 31 1014.0
20171119211712 54 240 4.3 7.0 0.00 0.00 0.00 31 1014.1
20171119211214 54 237 5.2 8.7 0.00 0.00 0.00 31 1014.1
20171119210712 54 235 6.1 13.0 0.00 0.00 0.00 31 1014.3
20171119210212 54 234 6.1 13.9 0.00 0.00 0.00 32 1014.4
20171119205711 54 229 7.8 13.9 0.00 0.00 0.00 31 1014.5
20171119205209 53 232 6.1 7.8 0.00 0.00 0.00 32 1014.6
20171119204709 53 242 6.1 10.4 0.00 0.00 0.00 33 1014.6
20171119204209 52 235 6.1 10.4 0.00 0.00 0.00 34 1014.6
20171119203709 52 242 4.3 8.7 0.00 0.00 0.00 35 1014.6
20171119203209 52 243 4.3 5.2 0.00 0.00 0.00 35 1014.7
20171119202710 52 245 7.0 7.8 0.00 0.00 0.00 34 1014.8
20171119202209 52 231 6.1 12.2 0.00 0.00 0.00 35 1014.7
20171119201709 52 218 6.1 13.9 0.00 0.00 0.00 34 1014.8
20171119201209 52 221 5.2 8.7 0.00 0.00 0.00 34 1014.8
20171119200709 52 240 6.1 11.3 0.00 0.00 0.00 34 1014.9
20171119200209 53 242 5.2 8.7 0.00 0.00 0.00 35 1015.1
20171119195709 52 239 6.1 6.1 0.00 0.00 0.00 35 1015.1
20171119195211 52 225 5.2 8.7 0.00 0.00 0.00 36 1015.2
20171119194711 52 236 5.2 7.8 0.00 0.00 0.00 36 1015.2
20171119194211 52 234 5.2 12.2 0.00 0.00 0.00 36 1015.4
20171119193711 52 228 5.2 8.7 0.00 0.00 0.00 37 1015.6
20171119193211 52 211 5.2 7.8 0.00 0.00 0.00 36 1015.5
20171119192711 52 238 5.2 7.8 0.00 0.00 0.00 37 1015.6
20171119192211 52 239 5.2 11.3 0.00 0.00 0.00 37 1015.7
20171119191711 51 247 5.2 7.8 0.00 0.00 0.00 36 1015.8
20171119191211 52 224 6.1 8.7 0.00 0.00 0.00 35 1015.8
20171119190711 52 229 5.2 7.8 0.00 0.00 0.00 36 1016.0
20171119190210 52 228 6.1 8.7 0.00 0.00 0.00 35 1016.0
20171119185710 51 228 5.2 7.0 0.00 0.00 0.00 36 1016.1
20171119185209 51 216 6.1 12.2 0.00 0.00 0.00 37 1016.2
20171119184709 51 211 7.0 8.7 0.00 0.00 0.00 37 1016.3
20171119184209 51 229 4.3 6.1 0.00 0.00 0.00 39 1016.5
20171119183709 50 235 5.2 7.0 0.00 0.00 0.00 39 1016.5
20171119183208 50 206 5.2 13.9 0.00 0.00 0.00 40 1016.6
20171119182708 49 230 6.1 8.7 0.00 0.00 0.00 39 1016.6
20171119182213 49 221 5.2 8.7 0.00 0.00 0.00 41 1016.9
20171119181712 49 194 6.1 12.2 0.00 0.00 0.00 41 1016.9
20171119181212 49 205 7.0 12.2 0.00 0.00 0.00 40 1017.1
20171119180712 49 229 5.2 8.7 0.00 0.00 0.00 41 1017.4
20171119180212 49 224 6.1 7.8 0.00 0.00 0.00 41 1017.5
20171119175712 49 198 8.7 13.9 0.00 0.00 0.00 40 1017.7
20171119175212 49 203 7.0 12.2 0.00 0.00 0.00 42 1017.8
20171119174712 48 191 4.3 7.0 0.00 0.00 0.00 44 1017.9
20171119174212 47 203 6.1 8.7 0.00 0.00 0.00 45 1017.9
20171119173712 47 213 4.3 6.1 0.00 0.00 0.00 48 1018.2
20171119173211 46 221 4.3 5.2 0.00 0.00 0.00 50 1018.4
20171119172711 46 185 4.3 7.0 0.00 0.00 0.00 52 1018.5
20171119172211 45 181 2.6 7.0 0.00 0.00 0.00 55 1018.7
20171119171711 44 205 5.2 7.8 0.00 0.00 0.00 56 1018.7
20171119171211 43 216 5.2 10.4 0.00 0.00 0.00 59 1018.9
20171119170711 43 200 4.3 6.1 0.00 0.00 0.00 61 1018.9
20171119170211 42 195 2.6 6.1 0.00 0.00 0.00 64 1019.0
20171119165711 40 170 2.6 4.3 0.00 0.00 0.00 66 1019.1
20171119165211 40 180 2.6 5.2 0.00 0.00 0.00 68 1019.2
20171119164711 39 151 1.7 4.3 0.00 0.00 0.00 70 1019.3
20171119164211 38 142 1.7 4.3 0.00 0.00 0.00 71 1019.3
20171119163711 37 211 2.6 5.2 0.00 0.00 0.00 73 1019.3
20171119163211 36 134 0.9 4.3 0.00 0.00 0.00 76 1019.5
20171119162711 35 140 2.6 4.3 0.00 0.00 0.00 77 1019.6
20171119162211 34 226 2.6 5.2 0.00 0.00 0.00 78 1019.6
20171119161710 33 215 1.7 2.6 0.00 0.00 0.00 80 1019.7
20171119161210 32 208 2.6 2.6 0.00 0.00 0.00 80 1019.8
20171119160710 31 224 2.6 4.3 0.00 0.00 0.00 83 1019.9
20171119160210 30 219 1.7 2.6 0.00 0.00 0.00 83 1019.9
20171119155710 30 216 1.7 2.6 0.00 0.00 0.00 83 1020.0
20171119155210 29 204 1.7 1.7 0.00 0.00 0.00 84 1020.1
20171119154710 28 220 2.6 4.3 0.00 0.00 0.00 84 1020.1
20171119154210 28 221 1.7 2.6 0.00 0.00 0.00 85 1020.2
20171119153709 27 231 2.6 2.6 0.00 0.00 0.00 85 1020.0
20171119153213 27 214 2.6 4.3 0.00 0.00 0.00 85 1020.1
20171119152713 26 221 1.7 1.7 0.00 0.00 0.00 86 1020.2
20171119152213 26 189 1.7 4.3 0.00 0.00 0.00 85 1020.3
20171119151712 26 202 2.6 4.3 0.00 0.00 0.00 85 1020.5
20171119151212 26 220 4.3 5.2 0.00 0.00 0.00 85 1020.6
20171119150712 25 237 2.6 5.2 0.00 0.00 0.00 86 1020.6
20171119150211 25 218 1.7 2.6 0.00 0.00 0.00 87 1020.7
20171119145710 24 236 2.6 4.3 0.00 0.00 0.00 87 1020.8
20171119145210 24 222 1.7 4.3 0.00 0.00 0.00 87 1020.8
20171119144710 24 231 1.7 2.6 0.00 0.00 0.00 87 1020.6
20171119144210 23 208 2.6 2.6 0.00 0.00 0.00 88 1020.6
20171119143710 23 240 2.6 4.3 0.00 0.00 0.00 89 1020.5
20171119143210 22 237 0.0 0.0 0.00 0.00 0.00 89 1020.5
20171119142710 22 237 0.0 0.0 0.00 0.00 0.00 90 1020.6
20171119142210 22 237 0.9 0.9 0.00 0.00 0.00 90 1020.5
20171119141710 22 235 1.7 2.6 0.00 0.00 0.00 91 1020.6
20171119141209 21 221 1.7 1.7 0.00 0.00 0.00 91 1020.6
20171119140709 21 221 0.9 1.7 0.00 0.00 0.00 91 1020.5
20171119140209 21 245 1.7 4.3 0.00 0.00 0.00 92 1020.3
20171119135710 21 224 0.0 0.0 0.00 0.00 0.00 91 1020.5
20171119135209 21 224 0.0 0.0 0.00 0.00 0.00 92 1020.5
20171119134709 21 229 0.9 1.7 0.00 0.00 0.00 92 1020.6
20171119134209 20 230 2.6 2.6 0.00 0.00 0.00 92 1020.7
20171119133709 20 240 0.0 1.7 0.00 0.00 0.00 92 1020.9
20171119133209 20 240 0.0 0.0 0.00 0.00 0.00 92 1020.9
20171119132709 20 237 0.9 1.7 0.00 0.00 0.00 92 1020.9
20171119132209 20 223 0.9 0.9 0.00 0.00 0.00 92 1020.9
20171119131713 20 234 1.7 1.7 0.00 0.00 0.00 92 1020.9
20171119131213 20 186 0.0 0.0 0.00 0.00 0.00 92 1020.9
20171119130713 20 206 0.9 0.9 0.00 0.00 0.00 92 1020.9
20171119130212 20 224 0.9 2.6 0.00 0.00 0.00 92 1020.9
20171119125712 20 227 0.0 0.0 0.00 0.00 0.00 92 1021.0
20171119125212 20 232 0.9 0.9 0.00 0.00 0.00 92 1021.0
20171119124712 21 233 0.9 1.7 0.00 0.00 0.00 92 1020.9
20171119124212 21 236 1.7 1.7 0.00 0.00 0.00 92 1020.9
20171119123712 21 210 0.0 0.0 0.00 0.00 0.00 92 1020.9
20171119123212 21 210 0.0 0.0 0.00 0.00 0.00 92 1020.9
20171119122712 21 210 0.0 0.0 0.00 0.00 0.00 92 1020.9
20171119122212 21 210 0.0 0.0 0.00 0.00 0.00 92 1020.9
20171119121712 21 210 0.0 0.0 0.00 0.00 0.00 92 1020.9
20171119121211 21 243 0.9 1.7 0.00 0.00 0.00 92 1020.8
20171119120711 21 224 0.0 0.0 0.00 0.00 0.00 92 1020.9
20171119120211 21 224 0.0 0.0 0.00 0.00 0.00 92 1021.0
20171119115711 21 224 0.0 0.0 0.00 0.00 0.00 92 1021.0
20171119115211 21 243 0.0 0.0 0.00 0.00 0.00 92 1020.9